Lid_Strength_Index
-0 -0 -0 0 0 0 1 1 1 1 0 0 0 1 0 0 -0 1 2 2 6 7 6 5 5 7 8 8 11 12 11 10 10 13 13 13 14 13 14 15 16 15 16 16 15 17 19 14 15 13 13 16 16 16
-1 -1 -0 -0 0 0 1 1 1 1 0 0 0 0 0 -0 -0 -0 3 2 1 7 7 4 4 4 4 6 7 10 12 11 10 13 11 11 13 12 15 17 13 15 13 15 13 14 10 13 12 13 14 15 15 15
-1 -0 -0 -0 0 1 1 1 1 1 0 -0 -0 -0 -0 -0 -1 0 4 2 4 7 7 6 7 5 5 4 3 8 9 8 8 7 9 10 13 12 15 14 16 14 13 14 13 13 13 14 15 14 15 15 16 15
-1 -0 0 1 0 0 1 0 1 0 -0 -1 -1 -1 -1 -1 -0 -0 3 2 3 6 9 9 6 7 6 4 4 4 6 6 7 7 9 10 12 11 15 14 16 14 13 14 14 13 13 13 14 13 14 15 15 15
-1 0 1 1 1 0 -0 -0 -0 -0 -0 -1 -1 -1 -1 -1 -0 1 3 2 1 6 10 9 9 7 6 5 5 5 5 6 7 8 9 11 10 11 15 14 14 13 13 12 14 13 12 12 11 12 14 14 14 15
-1 -0 1 1 0 0 0 0 0 -0 -0 -1 -1 -1 -1 -1 -1 3 8 5 2 3 7 12 9 10 8 5 5 5 4 5 7 8 9 9 10 10 13 15 13 12 13 11 10 11 13 12 12 11 13 13 14 15
-1 -0 0 0 1 1 1 0 0 -0 -0 -0 -0 -1 -1 -1 2 5 9 6 0 1 7 12 12 10 7 6 6 6 5 7 7 8 9 10 11 9 11 16 12 14 13 13 12 11 12 14 13 12 12 13 15 16
-1 -1 -0 0 1 1 1 1 -0 -0 -0 -0 -1 -1 -1 -1 -0 3 2 0 -0 4 5 15 14 13 7 9 10 7 8 8 8 9 10 13 11 11 13 12 14 16 15 15 15 14 13 13 14 15 16 16 16 17
-1 -1 -0 1 1 1 1 0 -0 -0 -0 -1 -0 -0 1 3 6 6 -0 -1 1 5 9 12 15 18 8 10 9 9 8 11 9 12 12 11 13 14 15 16 18 20 19 19 18 16 15 16 17 17 17 17 17 18
-1 -1 -0 0 1 1 0 -0 -0 -0 -0 -1 2 5 8 7 2 0 3 8 5 6 7 11 11 15 9 10 13 12 10 12 15 14 11 13 17 18 21 22 22 22 22 22 20 19 20 19 19 20 21 20 20 20
-0 -1 -0 0 1 1 0 -0 -0 -1 -0 3 8 11 6 2 6 12 12 10 16 13 9 13 11 12 8 16 14 10 13 13 16 14 14 19 21 18 22 24 24 23 23 24 23 22 22 22 20 21 23 24 24 24
-0 -1 -0 0 1 1 -0 -1 -1 2 5 4 6 4 6 12 13 11 14 17 16 17 11 13 12 10 9 9 10 12 13 14 16 17 17 21 17 24 24 26 26 26 27 27 26 25 25 25 25 26 27 27 28 27
-0 -0 -0 0 0 0 -0 -1 -1 -0 1 5 9 11 10 14 16 19 17 18 22 20 11 12 10 10 9 9 10 12 14 16 15 16 19 19 25 28 28 28 29 29 28 27 27 27 27 28 29 29 29 30 29 30
-0 0 0 0 0 1 1 0 -0 -0 3 9 12 13 15 19 18 20 21 20 18 17 13 14 14 10 9 11 11 14 13 15 18 20 20 30 31 31 30 31 33 32 30 29 29 28 29 29 31 31 32 31 30 31
-1 -0 1 1 2 2 2 1 1 2 5 8 11 17 18 20 23 24 25 22 17 18 15 10 10 10 14 12 12 15 17 17 17 20 31 30 30 30 31 31 32 32 31 31 31 30 31 31 31 33 34 33 32 31
1 2 3 2 2 1 1 3 6 10 15 14 17 15 24 23 26 25 25 24 21 20 15 12 14 11 12 13 16 17 17 19 23 35 32 31 32 31 32 32 32 32 32 32 33 33 32 33 33 36 34 33 33 32
3 10 2 2 1 2 3 10 11 15 17 21 26 24 27 27 28 30 29 25 22 20 13 13 17 13 15 20 23 30 31 34 35 33 31 31 32 32 31 31 31 32 32 32 33 33 34 36 33 30 32 34 33 33
10 6 3 2 5 7 12 11 15 17 22 23 27 30 28 28 29 29 28 24 24 23 20 23 21 23 24 23 29 31 32 32 30 31 31 31 32 31 31 31 32 31 31 31 32 31 31 30 30 32 32 34 31 32
8 6 4 3 7 12 14 14 14 20 22 24 23 23 26 28 26 26 27 25 25 26 27 28 32 34 36 32 34 31 30 30 31 30 30 30 30 30 30 30 30 31 31 31 31 31 31 32 32 31 31 31 32 34
5 6 6 6 8 14 17 17 14 18 22 22 23 25 26 28 27 28 28 27 28 30 34 36 37 35 33 32 31 29 28 28 30 31 30 29 28 29 29 29 30 30 30 30 30 30 30 30 31 32 33 33 33 35
12 12 11 13 16 16 18 18 18 18 20 22 23 23 26 26 29 30 30 28 32 34 35 34 34 33 31 32 30 29 27 26 28 28 30 31 29 29 30 30 30 30 31 31 31 32 32 34 34 36 35 37 38 37
18 13 20 17 17 19 20 19 18 18 21 23 24 26 30 31 32 32 28 32 34 34 33 32 32 32 31 32 31 29 28 27 28 28 28 28 30 31 32 31 31 33 34 34 34 35 36 37 37 36 36 39 36 35
18 18 23 25 24 24 26 20 22 22 24 25 25 27 29 32 30 27 34 33 33 31 31 31 30 30 31 30 30 30 29 29 31 31 31 31 31 31 32 33 32 32 33 36 37 37 38 34 35 36 37 36 37 36
21 29 32 33 32 32 28 28 25 25 25 27 29 31 30 30 28 32 37 36 33 31 32 31 30 31 30 31 33 33 31 29 31 31 30 32 33 34 34 35 35 36 37 37 37 36 37 39 36 36 37 40 41 41
31 38 36 41 34 34 33 33 32 30 32 30 32 32 31 29 34 36 36 36 34 34 33 31 32 32 33 33 32 33 32 32 31 33 33 32 34 36 37 37 38 38 39 37 40 41 42 42 41 41 41 42 42 41
41 38 41 40 38 38 36 37 37 37 33 34 34 32 32 33 36 39 36 34 34 34 35 34 33 33 34 33 33 33 35 35 33 34 35 39 39 40 41 40 39 38 42 43 43 43 43 42 43 43 42 41 38 41
41 41 35 33 35 35 35 35 34 36 38 39 38 34 34 39 40 37 32 31 32 33 33 34 33 32 33 34 34 35 36 38 38 38 42 43 42 42 40 40 40 39 43 44 45 45 43 43 43 42 40 40 42 40
34 34 39 36 36 34 37 37 38 39 38 37 37 40 41 41 40 34 32 31 32 33 34 35 35 34 34 36 38 38 41 42 39 40 41 40 43 43 45 44 43 29 39 41 40 39 42 41 39 38 36 36 34 38
33 33 33 37 35 35 37 37 38 36 35 37 38 40 41 37 37 33 32 31 31 32 33 34 35 36 36 38 42 49 48 41 39 40 42 41 41 38 43 45 45 43 43 46 34 28 30 31 31 31 33 34 34 36
34 33 34 35 36 37 35 36 36 35 33 34 33 33 34 35 34 32 32 32 32 34 36 38 40 38 39 39 40 41 47 49 44 39 41 40 39 42 46 45 42 42 43 46 38 37 32 34 35 39 37 36 36 34
34 33 33 34 36 35 36 37 36 34 34 35 35 36 37 37 34 35 35 40 42 46 43 42 44 48 46 45 46 44 40 43 44 42 45 46 46 45 42 40 39 41 43 43 41 41 37 37 37 37 36 36 35 34
38 45 41 38 38 38 40 40 41 39 39 38 40 44 42 40 40 39 40 45 45 43 41 45 45 40 41 41 45 45 37 41 42 39 40 38 39 39 38 37 37 39 40 37 36 36 36 37 36 35 34 34 34 34
48 48 49 45 41 41 44 44 42 43 43 46 45 51 50 44 39 37 38 42 39 38 40 39 39 42 42 41 40 40 37 39 39 31 28 28 28 28 29 30 33 34 35 34 33 33 34 34 34 34 34 34 34 33